Location: Home
(42.5358°N, 72.7383°W)
Time: 13:16:59
(UTC-05:00)

Transit 2A Rocket - Pass Details

Date: 01 December 2021
Orbit: 584 x 918 km, 66.7° (Epoch: 22 January)

Event Time Altitude Azimuth Distance (km) Brightness Sun altitude
Rises 17:09:33 0° 326° (NNW) 3,558 8.6 -9.3°
Reaches altitude 10° 17:12:09 10° 324° (NW) 2,599 7.9 -9.7°
Maximum altitude 17:18:09 66° 244° (WSW) 957 5.8 -10.8°
Drops below altitude 10° 17:23:46 10° 163° (SSE) 2,434 7.6 -11.7°
Sets 17:26:08 0° 161° (SSE) 3,316 8.3 -12.2°
